Location: Unspecified
(41.3904°N, 0.0000°E)
Time: 15:41:15
(UTC+00:00)

BEESAT - Visible Passes

Search period start: 04 April 2026 00:00
Search period end: 14 April 2026 00:00
Orbit: 684 x 693 km, 98.4° (Epoch: 29 March)

Date Brightness Start Highest point End Pass type
(mag) Time Alt. Az. Time Alt. Az. Time Alt. Az.
7 Apr ? 00:09:56 10° N 00:10:08 11° N 00:10:08 11° N visible
8 Apr ? 23:48:49 10° N 23:49:10 12° N 23:49:10 12° N visible
10 Apr ? 00:27:31 10° N 00:27:58 12° NNW 00:27:58 12° NNW visible
10 Apr ? 23:27:53 10° NNE 23:28:11 12° NNE 23:28:11 12° NNE visible
12 Apr ? 00:06:15 10° N 00:06:59 14° N 00:06:59 14° N visible
12 Apr ? 23:07:07 10° NNE 23:07:12 10° NNE 23:07:12 10° NNE visible
13 Apr ? 00:45:15 10° NNW 00:45:47 12° NNW 00:45:47 12° NNW visible
13 Apr ? 23:45:10 10° N 23:46:00 15° N 23:46:00 15° N visible
